Weather in Gornyak

Russia / Altai Krai     50°59′51″N   81°27′51″E
temp.,
°C
wind,
m/s
gust,
m/s
humid.,
%
clouds,
%
prec.,
mm/h
press.,
hPa
HPBL,
m
18 may, tue
tue1801:00+17se22705 0.0 101511
04:00+16ssw2271100 0.0 101412
07:00+16ssw24705 0.0 101476
10:00+23sw574674 0.0 1013710
13:00+28w57325 0.0 10112020
16:00+28w782980 0.1 10092836
19:00+27sw583626 0.1 1007483
22:00+17se587299 0.4 1008130
19 may, wed
wed1901:00+16w3375100 1.0 100840
04:00+16ssw477299 0.4 1006124
07:00+16ssw497918 1.0 1006262
10:00+20w3559100 0.3 1006727
13:00+16nw51086100 2.3 1006675
16:00+20nw686399 1.3 10051560
19:00+13nne71078100 1.8 1007817
22:00+12nne4779100 0.1 1008783
20 may, thu
thu2001:00+10nne61071100 0.1 1009796
04:00+8nnw5107093 0.0 1009435
07:00+5n71088100 0.6 1012741
10:00+8n6105675 0.4 10131654
13:00+10n7841100 0.9 10132558
16:00+9n8114944 1.6 10152154
19:00+8n811496 2.6 10172274
22:00+5n49545 0.1 1021344
21 may, fri
fri2101:00+3nnw49560 0.1 1023247
04:00+2n36610 0.0 1024120
07:00+3n24590 0.0 1026145
10:00+8nnw45385 0.0 10271440
13:00+11nnw453317 0.0 10271904
16:00+13n34305 0.0 10262272
19:00+13nne33315 0.0 10261961
22:00+9ese22455 0.0 102811
22 may, sat
sat2201:00+7se335425 0.0 102838
04:00+6sse225439 0.0 102825
07:00+7s365981 0.0 1028158
10:00+12ssw564073 0.0 1027643
13:00+18sw562853 0.0 10251268
16:00+21wsw34285 0.0 10241506
19:00+21sw233221 0.0 10231338
22:00+15sse5105453 0.0 1023165